TimeCDT,TemperatureF,Dew PointF,Humidity,Sea Level PressureIn,VisibilityMPH,Wind Direction,Wind SpeedMPH,Gust SpeedMPH,PrecipitationIn,Events,Conditions,WindDirDegrees,DateUTC
12:53 AM,78.1,73.9,87,29.98,10.0,ESE,6.9,-,N/A,,Clear,110,2013-10-03 05:53:00
1:53 AM,78.1,73.9,87,29.97,10.0,ESE,6.9,-,N/A,,Partly Cloudy,120,2013-10-03 06:53:00
2:53 AM,78.1,73.9,87,29.96,10.0,ESE,3.5,-,N/A,,Partly Cloudy,120,2013-10-03 07:53:00
3:12 AM,78.8,75.2,89,29.97,10.0,ESE,3.5,-,N/A,,Mostly Cloudy,120,2013-10-03 08:12:00
3:42 AM,78.8,75.2,89,29.96,10.0,ESE,4.6,-,N/A,,Scattered Clouds,110,2013-10-03 08:42:00
3:53 AM,78.1,75.0,90,29.94,10.0,ESE,4.6,-,N/A,,Partly Cloudy,120,2013-10-03 08:53:00
4:53 AM,78.1,75.0,90,29.94,10.0,ESE,5.8,-,N/A,,Clear,110,2013-10-03 09:53:00
5:53 AM,77.0,73.9,90,29.95,10.0,ESE,4.6,-,N/A,,Clear,120,2013-10-03 10:53:00
6:53 AM,77.0,73.9,90,29.96,10.0,ESE,4.6,-,N/A,,Clear,120,2013-10-03 11:53:00
7:53 AM,79.0,73.9,84,29.97,10.0,SE,5.8,-,N/A,,Clear,130,2013-10-03 12:53:00
8:53 AM,82.0,73.9,76,30.00,10.0,ESE,6.9,-,N/A,,Partly Cloudy,120,2013-10-03 13:53:00
9:53 AM,84.9,73.9,69,30.01,10.0,ESE,8.1,-,N/A,,Scattered Clouds,120,2013-10-03 14:53:00
10:01 AM,84.2,73.4,70,30.03,10.0,ESE,8.1,-,N/A,,Scattered Clouds,120,2013-10-03 15:01:00
10:42 AM,84.2,73.4,70,30.03,10.0,SE,9.2,-,N/A,,Mostly Cloudy,130,2013-10-03 15:42:00
10:53 AM,84.0,73.0,69,30.01,10.0,ESE,9.2,-,N/A,,Mostly Cloudy,110,2013-10-03 15:53:00
11:12 AM,87.8,73.4,62,30.03,10.0,ESE,10.4,-,N/A,,Mostly Cloudy,110,2013-10-03 16:12:00
11:53 AM,86.0,73.0,65,30.00,10.0,ESE,13.8,-,N/A,,Mostly Cloudy,110,2013-10-03 16:53:00
12:53 PM,86.0,73.0,65,29.99,10.0,ESE,10.4,-,N/A,,Mostly Cloudy,110,2013-10-03 17:53:00
1:53 PM,86.0,73.9,67,29.96,10.0,East,12.7,-,N/A,,Mostly Cloudy,90,2013-10-03 18:53:00
2:53 PM,86.0,73.9,67,29.94,10.0,East,12.7,-,N/A,,Scattered Clouds,100,2013-10-03 19:53:00
3:53 PM,84.9,75.0,72,29.94,10.0,East,15.0,-,N/A,,Scattered Clouds,90,2013-10-03 20:53:00
4:53 PM,84.0,75.0,74,29.93,10.0,East,16.1,-,N/A,,Mostly Cloudy,100,2013-10-03 21:53:00
5:53 PM,82.0,75.0,79,29.94,10.0,ESE,12.7,-,0.00,,Overcast,110,2013-10-03 22:53:00
6:53 PM,81.0,75.0,82,29.94,10.0,East,10.4,-,N/A,,Mostly Cloudy,100,2013-10-03 23:53:00
7:11 PM,80.6,75.2,84,29.96,10.0,ESE,15.0,21.9,N/A,,Mostly Cloudy,110,2013-10-04 00:11:00
7:20 PM,80.6,73.4,79,29.97,10.0,ESE,15.0,-,N/A,,Scattered Clouds,120,2013-10-04 00:20:00
7:53 PM,80.1,73.9,81,29.95,10.0,ESE,13.8,-,N/A,,Overcast,110,2013-10-04 00:53:00
8:30 PM,78.8,73.4,83,29.98,10.0,SE,16.1,21.9,N/A,,Overcast,130,2013-10-04 01:30:00
8:39 PM,78.8,73.4,83,29.98,10.0,SE,16.1,-,N/A,,Overcast,130,2013-10-04 01:39:00
8:53 PM,79.0,73.9,84,29.97,10.0,SE,13.8,-,N/A,,Mostly Cloudy,140,2013-10-04 01:53:00
9:19 PM,78.8,73.4,83,29.99,10.0,SE,13.8,-,N/A,,Mostly Cloudy,130,2013-10-04 02:19:00
9:33 PM,78.8,75.2,89,29.99,10.0,ESE,16.1,21.9,N/A,,Mostly Cloudy,120,2013-10-04 02:33:00
9:53 PM,79.0,75.0,88,29.98,10.0,SE,12.7,19.6,N/A,,Mostly Cloudy,130,2013-10-04 02:53:00
10:13 PM,78.8,75.2,89,30.00,10.0,SSE,11.5,-,N/A,,Overcast,150,2013-10-04 03:13:00
10:23 PM,78.8,73.4,83,30.00,10.0,SE,13.8,19.6,N/A,,Mostly Cloudy,140,2013-10-04 03:23:00
11:53 PM,78.1,73.9,87,29.98,10.0,SSE,12.7,-,N/A,,Mostly Cloudy,150,2013-10-04 04:53:00